| time (UTC) | temp C | wind direction | speed KPH | gust KPH | rain 1hr cm | rain 24hr cm | rain mn cm | humidity % | barometer mb |
| 20260902124509 | 24 | 218 | 3.2 | 17.7 | 0.00 | 0.03 | 0.03 | 57 | 1020.1 |
| 20260902123007 | 23 | 265 | 1.6 | 9.7 | 0.00 | 0.03 | 0.03 | 61 | 1020.4 |
| 20260902121504 | 23 | 222 | 4.8 | 11.3 | 0.00 | 0.03 | 0.03 | 62 | 1020.6 |
| 20260902120301 | 23 | 203 | 6.4 | 9.7 | 0.00 | 0.03 | 0.03 | 63 | 1022.2 |
| 20260902120002 | 22 | 238 | 0.0 | 12.9 | 0.00 | 0.03 | 0.03 | 63 | 1020.9 |
| 20260902114602 | 22 | 197 | 0.0 | 11.3 | 0.00 | 0.03 | 0.03 | 66 | 1021.1 |
| 20260902113100 | 21 | 213 | 1.6 | 11.3 | 0.00 | 0.03 | 0.03 | 65 | 1021.1 |
| 20260902111553 | 21 | 254 | 1.6 | 9.7 | 0.00 | 0.03 | 0.03 | 67 | 1021.3 |
| 20260902110231 | 21 | 203 | 3.2 | 4.8 | 0.00 | 0.03 | 0.03 | 67 | 1022.6 |
| 20260902110053 | 21 | 204 | 3.2 | 8.0 | 0.00 | 0.03 | 0.03 | 66 | 1021.4 |
| 20260902104556 | 21 | 192 | 3.2 | 9.7 | 0.00 | 0.03 | 0.03 | 67 | 1021.4 |
| 20260902103101 | 22 | 171 | 1.6 | 9.7 | 0.00 | 0.03 | 0.03 | 66 | 1021.5 |
| 20260902101549 | 21 | 217 | 3.2 | 9.7 | 0.00 | 0.03 | 0.03 | 66 | 1021.7 |
| 20260902100203 | 21 | 0.0 | 0.0 | 0.00 | 0.03 | 0.03 | 69 | 1022.9 | |
| 20260902094543 | 20 | 209 | 0.0 | 0.0 | 0.00 | 0.03 | 0.03 | 67 | 1021.8 |
| 20260902093044 | 20 | 207 | 0.0 | 0.0 | 0.00 | 0.03 | 0.03 | 68 | 1022.0 |
| 20260902091600 | 20 | 213 | 0.0 | 0.0 | 0.00 | 0.03 | 0.03 | 70 | 1022.0 |
| 20260902090255 | 18 | 0.0 | 0.0 | 0.00 | 0.03 | 0.03 | 75 | 1023.0 | |
| 20260902090036 | 19 | 213 | 0.0 | 0.0 | 0.00 | 0.03 | 0.03 | 74 | 1022.1 |
| 20260902084540 | 18 | 198 | 0.0 | 0.0 | 0.00 | 0.03 | 0.03 | 76 | 1022.0 |
| 20260902083028 | 17 | 270 | 0.0 | 0.0 | 0.00 | 0.03 | 0.03 | 79 | 1021.9 |
| 20260902081532 | 17 | 271 | 0.0 | 0.0 | 0.00 | 0.03 | 0.03 | 81 | 1022.0 |
| 20260902080206 | 16 | 0.0 | 0.0 | 0.00 | 0.03 | 0.03 | 88 | 1022.8 | |
| 20260902080022 | 16 | 244 | 0.0 | 0.0 | 0.00 | 0.03 | 0.03 | 87 | 1021.7 |
| 20260902074517 | 16 | 269 | 0.0 | 0.0 | 0.00 | 0.03 | 0.03 | 89 | 1021.5 |
| 20260902073013 | 15 | 255 | 0.0 | 0.0 | 0.00 | 0.03 | 0.03 | 91 | 1021.7 |
| 20260902071526 | 14 | 263 | 0.0 | 0.0 | 0.00 | 0.03 | 0.03 | 92 | 1021.8 |
| 20260902070248 | 13 | 0.0 | 0.0 | 0.00 | 0.03 | 0.03 | 92 | 1022.7 | |
| 20260902070008 | 13 | 271 | 0.0 | 0.0 | 0.00 | 0.03 | 0.03 | 92 | 1021.6 |
| 20260902064503 | 12 | 360 | 0.0 | 0.0 | 0.00 | 0.03 | 0.03 | 92 | 1021.9 |
| 20260902063001 | 10 | 271 | 0.0 | 0.0 | 0.00 | 0.03 | 0.03 | 91 | 1021.9 |
| 20260902061611 | 9 | 271 | 0.0 | 0.0 | 0.00 | 0.03 | 0.03 | 90 | 1021.9 |
| 20260902060128 | 9 | 0.0 | 0.0 | 0.00 | 0.03 | 0.03 | 90 | 1022.4 | |
| 20260902060058 | 9 | 271 | 0.0 | 0.0 | 0.00 | 0.03 | 0.03 | 90 | 1022.0 |
| 20260902054556 | 8 | 271 | 0.0 | 0.0 | 0.03 | 0.03 | 0.03 | 90 | 1021.9 |
| 20260902053054 | 8 | 271 | 0.0 | 0.0 | 0.03 | 0.03 | 0.03 | 89 | 1022.0 |
| 20260902051551 | 8 | 271 | 0.0 | 0.0 | 0.03 | 0.03 | 0.03 | 89 | 1021.8 |
| 20260902050200 | 9 | 0.0 | 0.0 | 0.03 | 0.03 | 0.03 | 89 | 1022.2 | |
| 20260902050052 | 8 | 271 | 0.0 | 0.0 | 0.03 | 0.03 | 0.03 | 89 | 1021.6 |
| 20260902044549 | 8 | 271 | 0.0 | 0.0 | 0.00 | 0.00 | 0.00 | 89 | 1021.7 |
| 20260902043054 | 9 | 271 | 0.0 | 0.0 | 0.00 | 0.00 | 0.00 | 89 | 1021.5 |
| 20260902041548 | 9 | 271 | 0.0 | 0.0 | 0.00 | 0.00 | 0.00 | 89 | 1021.5 |
| 20260902040122 | 10 | 0.0 | 0.0 | 0.00 | 0.00 | 0.00 | 89 | 1022.2 | |
| 20260902040046 | 9 | 271 | 0.0 | 0.0 | 0.00 | 0.00 | 0.00 | 89 | 1021.4 |
| 20260902034545 | 9 | 271 | 0.0 | 0.0 | 0.00 | 0.00 | 0.00 | 89 | 1021.5 |
| 20260902033044 | 9 | 271 | 0.0 | 0.0 | 0.00 | 0.00 | 0.00 | 89 | 1021.4 |
| 20260902031542 | 9 | 271 | 0.0 | 0.0 | 0.00 | 0.00 | 0.00 | 88 | 1021.5 |
| 20260902030205 | 10 | 0.0 | 0.0 | 0.00 | 0.00 | 0.00 | 88 | 1022.3 | |
| 20260902030041 | 10 | 271 | 0.0 | 0.0 | 0.00 | 0.00 | 0.00 | 88 | 1021.4 |
| 20260902024540 | 10 | 271 | 0.0 | 0.0 | 0.00 | 0.00 | 0.00 | 88 | 1021.4 |
| 20260902023038 | 10 | 271 | 0.0 | 0.0 | 0.00 | 0.00 | 0.00 | 88 | 1021.6 |
| 20260902021543 | 10 | 271 | 0.0 | 0.0 | 0.00 | 0.00 | 0.00 | 88 | 1021.6 |
| 20260902020117 | 11 | 0.0 | 0.0 | 0.00 | 0.00 | 0.00 | 88 | 1022.7 | |
| 20260902020037 | 10 | 271 | 0.0 | 0.0 | 0.00 | 0.00 | 0.00 | 88 | 1021.6 |
| 20260902014540 | 10 | 271 | 0.0 | 0.0 | 0.00 | 0.00 | 0.00 | 87 | 1021.7 |
| 20260902013034 | 11 | 271 | 0.0 | 0.0 | 0.00 | 0.00 | 0.00 | 87 | 1021.7 |
| 20260902011545 | 11 | 271 | 0.0 | 0.0 | 0.00 | 0.00 | 0.00 | 87 | 1021.6 |
| 20260902010147 | 11 | 0.0 | 0.0 | 0.00 | 0.00 | 0.00 | 87 | 1022.6 | |
| 20260902010104 | 11 | 271 | 0.0 | 0.0 | 0.00 | 0.00 | 0.00 | 87 | 1021.7 |
| 20260902004531 | 11 | 271 | 0.0 | 0.0 | 0.00 | 0.00 | 0.00 | 87 | 1021.7 |
| 20260902003029 | 11 | 271 | 0.0 | 0.0 | 0.00 | 0.00 | 0.00 | 87 | 1021.6 |
| 20260902001528 | 11 | 271 | 0.0 | 0.0 | 0.00 | 0.00 | 0.00 | 87 | 1021.5 |
| 20260902000118 | 12 | 0.0 | 0.0 | 0.00 | 0.00 | 0.00 | 86 | 1022.4 | |
| 20260902000040 | 11 | 271 | 0.0 | 0.0 | 0.00 | 0.00 | 0.00 | 86 | 1021.5 |
| 20260901234526 | 11 | 271 | 0.0 | 0.0 | 0.00 | 0.00 | 0.00 | 86 | 1021.4 |
| 20260901233027 | 11 | 271 | 0.0 | 0.0 | 0.00 | 0.00 | 0.00 | 86 | 1021.5 |
| 20260901231526 | 11 | 271 | 0.0 | 0.0 | 0.00 | 0.00 | 0.00 | 85 | 1021.5 |
| 20260901230049 | 12 | 0.0 | 0.0 | 0.00 | 0.00 | 0.00 | 84 | 1022.7 | |
| 20260901230030 | 11 | 271 | 0.0 | 0.0 | 0.00 | 0.00 | 0.00 | 85 | 1021.7 |
| 20260901224534 | 12 | 271 | 0.0 | 0.0 | 0.00 | 0.00 | 0.00 | 84 | 1021.6 |
| 20260901223041 | 12 | 271 | 0.0 | 0.0 | 0.00 | 0.00 | 0.00 | 84 | 1021.7 |
| 20260901221518 | 12 | 271 | 0.0 | 0.0 | 0.00 | 0.00 | 0.00 | 83 | 1021.6 |
| 20260901220140 | 12 | 0.0 | 0.0 | 0.00 | 0.00 | 0.00 | 82 | 1022.3 | |
| 20260901220019 | 12 | 271 | 0.0 | 0.0 | 0.00 | 0.00 | 0.00 | 83 | 1021.6 |
| 20260901214515 | 12 | 271 | 0.0 | 0.0 | 0.00 | 0.05 | 0.00 | 82 | 1021.5 |
| 20260901213014 | 12 | 271 | 0.0 | 0.0 | 0.00 | 0.05 | 0.00 | 81 | 1021.4 |
| 20260901211523 | 13 | 271 | 0.0 | 0.0 | 0.00 | 0.05 | 0.00 | 81 | 1021.4 |
| 20260901210230 | 13 | 0.0 | 0.0 | 0.00 | 0.05 | 0.00 | 80 | 1022.2 | |
| 20260901210017 | 13 | 271 | 0.0 | 0.0 | 0.00 | 0.05 | 0.00 | 81 | 1021.4 |
| 20260901204520 | 13 | 271 | 0.0 | 0.0 | 0.00 | 0.05 | 0.00 | 80 | 1021.2 |
| 20260901203011 | 13 | 271 | 0.0 | 0.0 | 0.00 | 0.05 | 0.00 | 79 | 1021.1 |
| 20260901201511 | 14 | 271 | 0.0 | 0.0 | 0.00 | 0.05 | 0.00 | 78 | 1021.0 |
| 20260901200057 | 15 | 0.0 | 0.0 | 0.00 | 0.05 | 0.00 | 77 | 1021.6 | |
| 20260901200032 | 14 | 271 | 0.0 | 0.0 | 0.00 | 0.05 | 0.00 | 78 | 1021.0 |
| 20260901194509 | 15 | 271 | 0.0 | 0.0 | 0.00 | 0.05 | 0.00 | 76 | 1020.8 |
| 20260901193008 | 16 | 271 | 0.0 | 0.0 | 0.00 | 0.05 | 0.00 | 74 | 1020.8 |
| 20260901191509 | 16 | 271 | 0.0 | 0.0 | 0.00 | 0.05 | 0.00 | 74 | 1020.7 |
| 20260901190146 | 17 | 0.0 | 0.0 | 0.00 | 0.05 | 0.00 | 71 | 1021.4 | |
| 20260901190009 | 16 | 271 | 0.0 | 0.0 | 0.00 | 0.05 | 0.00 | 72 | 1020.7 |
| 20260901184508 | 17 | 271 | 0.0 | 1.6 | 0.00 | 0.05 | 0.00 | 70 | 1020.6 |
| 20260901183006 | 18 | 271 | 0.0 | 0.0 | 0.00 | 0.05 | 0.00 | 66 | 1020.5 |
| 20260901181506 | 18 | 271 | 0.0 | 0.0 | 0.00 | 0.05 | 0.00 | 65 | 1020.4 |
| 20260901180156 | 19 | 0.0 | 0.0 | 0.00 | 0.05 | 0.00 | 64 | 1021.0 | |
| 20260901180018 | 18 | 271 | 0.0 | 0.0 | 0.00 | 0.05 | 0.00 | 64 | 1020.1 |
| 20260901174505 | 19 | 271 | 0.0 | 1.6 | 0.00 | 0.05 | 0.00 | 65 | 1020.0 |
| 20260901173004 | 19 | 269 | 0.0 | 3.2 | 0.00 | 0.05 | 0.00 | 65 | 1020.0 |
| 20260901171503 | 20 | 259 | 0.0 | 3.2 | 0.00 | 0.05 | 0.00 | 64 | 1020.0 |
| 20260901170023 | 20 | 0.0 | 1.6 | 0.00 | 0.05 | 0.00 | 65 | 1021.1 | |
| 20260901170008 | 20 | 184 | 0.0 | 3.2 | 0.00 | 0.05 | 0.00 | 64 | 1019.9 |
| 20260901164502 | 20 | 222 | 0.0 | 6.4 | 0.00 | 0.05 | 0.00 | 64 | 1020.1 |
| 20260901163007 | 20 | 213 | 0.0 | 4.8 | 0.00 | 0.05 | 0.00 | 62 | 1020.2 |
| 20260901161502 | 20 | 255 | 1.6 | 9.7 | 0.00 | 0.05 | 0.00 | 62 | 1020.3 |
| 20260901160109 | 21 | 248 | 1.6 | 3.2 | 0.00 | 0.05 | 0.00 | 61 | 1021.3 |
| 20260901160000 | 21 | 251 | 1.6 | 6.4 | 0.00 | 0.05 | 0.00 | 62 | 1020.1 |
| 20260901154607 | 21 | 222 | 0.0 | 3.2 | 0.00 | 0.05 | 0.00 | 62 | 1020.2 |
| 20260901153124 | 22 | 277 | 1.6 | 4.8 | 0.00 | 0.05 | 0.00 | 57 | 1020.1 |
| 20260901151559 | 22 | 265 | 0.0 | 6.4 | 0.00 | 0.05 | 0.00 | 59 | 1020.1 |
| 20260901150058 | 22 | 241 | 0.0 | 4.8 | 0.00 | 0.05 | 0.00 | 60 | 1020.1 |
| 20260901150040 | 23 | 225 | 1.6 | 4.8 | 0.00 | 0.05 | 0.00 | 57 | 1021.7 |
| 20260901144559 | 23 | 275 | 1.6 | 6.4 | 0.00 | 0.05 | 0.00 | 57 | 1020.2 |
| 20260901143058 | 23 | 294 | 1.6 | 8.0 | 0.00 | 0.05 | 0.00 | 60 | 1020.3 |
| 20260901141556 | 23 | 211 | 3.2 | 9.7 | 0.00 | 0.05 | 0.00 | 59 | 1020.4 |
| 20260901140111 | 23 | 270 | 1.6 | 4.8 | 0.00 | 0.05 | 0.00 | 57 | 1021.9 |
| 20260901140056 | 22 | 241 | 1.6 | 8.0 | 0.00 | 0.05 | 0.00 | 59 | 1020.5 |
| 20260901134555 | 23 | 204 | 4.8 | 14.5 | 0.00 | 0.05 | 0.00 | 58 | 1020.5 |
| 20260901133051 | 23 | 250 | 3.2 | 9.7 | 0.00 | 0.05 | 0.00 | 63 | 1020.5 |
| 20260901131600 | 22 | 254 | 1.6 | 6.4 | 0.00 | 0.05 | 0.00 | 60 | 1020.7 |
| 20260901130059 | 22 | 211 | 6.4 | 14.5 | 0.00 | 0.05 | 0.00 | 61 | 1020.8 |
| 20260901130033 | 22 | 270 | 1.6 | 8.0 | 0.00 | 0.05 | 0.00 | 61 | 1022.2 |